| time (UTC) | temp F | wind direction | speed MPH | gust MPH | rain 1hr in | rain 24hr in | rain mn in | humidity % | barometer mb |
| 20260506231716 | 77 | 254 | 1.0 | 1.0 | 0.00 | 0.00 | 0.00 | 69 | 1013.9 |
| 20260506231214 | 77 | 311 | 2.0 | 2.0 | 0.00 | 0.00 | 0.00 | 69 | 1014.2 |
| 20260506230710 | 78 | 208 | 0.0 | 0.0 | 0.00 | 0.00 | 0.00 | 69 | 1014.2 |
| 20260506230207 | 78 | 277 | 0.0 | 0.0 | 0.00 | 0.00 | 0.00 | 69 | 1014.2 |
| 20260506225704 | 78 | 196 | 2.0 | 2.0 | 0.00 | 0.00 | 0.00 | 69 | 1013.9 |
| 20260506225201 | 78 | 255 | 3.0 | 3.0 | 0.00 | 0.00 | 0.00 | 68 | 1013.9 |
| 20260506224657 | 78 | 228 | 0.0 | 0.0 | 0.00 | 0.00 | 0.00 | 68 | 1013.9 |
| 20260506224154 | 79 | 180 | 0.0 | 0.0 | 0.00 | 0.00 | 0.00 | 69 | 1013.9 |
| 20260506223650 | 79 | 320 | 1.0 | 1.0 | 0.00 | 0.00 | 0.00 | 69 | 1013.9 |
| 20260506223146 | 79 | 228 | 2.0 | 2.0 | 0.00 | 0.00 | 0.00 | 69 | 1013.9 |
| 20260506222643 | 80 | 84 | 2.0 | 2.0 | 0.00 | 0.00 | 0.00 | 67 | 1013.9 |
| 20260506222139 | 80 | 125 | 3.0 | 4.0 | 0.00 | 0.00 | 0.00 | 67 | 1013.9 |
| 20260506221637 | 80 | 253 | 2.0 | 2.0 | 0.00 | 0.00 | 0.00 | 66 | 1013.9 |
| 20260506221135 | 80 | 84 | 0.0 | 0.0 | 0.00 | 0.00 | 0.00 | 66 | 1013.5 |
| 20260506220632 | 80 | 56 | 0.0 | 0.0 | 0.00 | 0.00 | 0.00 | 66 | 1013.5 |
| 20260506220127 | 80 | 0 | 0.0 | 0.0 | 0.00 | 0.00 | 0.00 | 64 | 1013.5 |
| 20260506215624 | 81 | 102 | 2.0 | 2.0 | 0.00 | 0.00 | 0.00 | 63 | 1013.9 |
| 20260506215119 | 81 | 192 | 2.0 | 2.0 | 0.00 | 0.00 | 0.00 | 63 | 1013.9 |
| 20260506214616 | 82 | 241 | 6.0 | 7.0 | 0.00 | 0.00 | 0.00 | 61 | 1013.9 |
| 20260506214114 | 82 | 335 | 2.0 | 2.0 | 0.00 | 0.00 | 0.00 | 61 | 1014.2 |
| 20260506213612 | 83 | 246 | 0.0 | 0.0 | 0.00 | 0.00 | 0.00 | 60 | 1013.9 |
| 20260506213109 | 83 | 246 | 0.0 | 0.0 | 0.00 | 0.00 | 0.00 | 60 | 1013.9 |
| 20260506212606 | 83 | 228 | 3.0 | 3.0 | 0.00 | 0.00 | 0.00 | 60 | 1013.9 |
| 20260506212100 | 82 | 178 | 2.0 | 2.0 | 0.00 | 0.00 | 0.00 | 61 | 1013.9 |
| 20260506211556 | 83 | 324 | 2.0 | 2.0 | 0.00 | 0.00 | 0.00 | 60 | 1013.9 |
| 20260506211054 | 83 | 251 | 2.0 | 2.0 | 0.00 | 0.00 | 0.00 | 58 | 1013.9 |
| 20260506210550 | 83 | 126 | 3.0 | 3.0 | 0.00 | 0.00 | 0.00 | 58 | 1013.9 |
| 20260506210047 | 84 | 137 | 1.0 | 1.0 | 0.00 | 0.00 | 0.00 | 58 | 1013.9 |
| 20260506205544 | 84 | 263 | 1.0 | 1.0 | 0.00 | 0.00 | 0.00 | 59 | 1013.9 |
| 20260506205039 | 84 | 258 | 3.0 | 3.0 | 0.00 | 0.00 | 0.00 | 58 | 1013.9 |
| 20260506204537 | 85 | 295 | 2.0 | 2.0 | 0.00 | 0.00 | 0.00 | 57 | 1014.2 |
| 20260506204034 | 85 | 122 | 3.0 | 4.0 | 0.00 | 0.00 | 0.00 | 58 | 1014.2 |
| 20260506203532 | 84 | 119 | 2.0 | 2.0 | 0.00 | 0.00 | 0.00 | 61 | 1014.2 |
| 20260506203028 | 84 | 184 | 1.0 | 1.0 | 0.00 | 0.00 | 0.00 | 61 | 1014.2 |
| 20260506202526 | 84 | 144 | 4.0 | 4.0 | 0.00 | 0.00 | 0.00 | 61 | 1014.2 |
| 20260506202022 | 83 | 199 | 3.0 | 3.0 | 0.00 | 0.00 | 0.00 | 62 | 1014.2 |
| 20260506201520 | 83 | 116 | 4.0 | 4.0 | 0.00 | 0.00 | 0.00 | 61 | 1014.5 |
| 20260506201016 | 83 | 108 | 2.0 | 2.0 | 0.00 | 0.00 | 0.00 | 61 | 1014.5 |
| 20260506200512 | 83 | 178 | 2.0 | 2.0 | 0.00 | 0.00 | 0.00 | 62 | 1014.5 |
| 20260506200009 | 84 | 324 | 2.0 | 2.0 | 0.00 | 0.00 | 0.00 | 61 | 1014.9 |
| 20260506195506 | 84 | 69 | 5.0 | 5.0 | 0.00 | 0.00 | 0.00 | 62 | 1014.9 |
| 20260506195003 | 85 | 173 | 3.0 | 3.0 | 0.00 | 0.00 | 0.00 | 61 | 1014.9 |
| 20260506194500 | 84 | 102 | 2.0 | 2.0 | 0.00 | 0.00 | 0.00 | 59 | 1014.5 |
| 20260506193956 | 85 | 240 | 3.0 | 3.0 | 0.00 | 0.00 | 0.00 | 57 | 1014.5 |
| 20260506193453 | 85 | 136 | 0.0 | 0.0 | 0.00 | 0.00 | 0.00 | 59 | 1014.5 |
| 20260506192945 | 85 | 246 | 3.0 | 3.0 | 0.00 | 0.00 | 0.00 | 57 | 1014.5 |
| 20260506192442 | 85 | 129 | 3.0 | 3.0 | 0.00 | 0.00 | 0.00 | 57 | 1014.5 |
| 20260506191938 | 85 | 139 | 2.0 | 2.0 | 0.00 | 0.00 | 0.00 | 58 | 1014.5 |
| 20260506191435 | 85 | 339 | 0.0 | 0.0 | 0.00 | 0.00 | 0.00 | 58 | 1015.2 |
| 20260506190931 | 85 | 269 | 3.0 | 3.0 | 0.00 | 0.00 | 0.00 | 55 | 1015.2 |
| 20260506190428 | 85 | 114 | 4.0 | 4.0 | 0.00 | 0.00 | 0.00 | 55 | 1015.2 |
| 20260506185925 | 86 | 90 | 3.0 | 4.0 | 0.00 | 0.00 | 0.00 | 52 | 1015.2 |
| 20260506185422 | 85 | 241 | 1.0 | 1.0 | 0.00 | 0.00 | 0.00 | 53 | 1015.2 |
| 20260506184919 | 85 | 59 | 3.0 | 4.0 | 0.00 | 0.00 | 0.00 | 50 | 1015.2 |
| 20260506184416 | 85 | 301 | 4.0 | 5.0 | 0.00 | 0.00 | 0.00 | 52 | 1015.9 |
| 20260506183914 | 85 | 262 | 3.0 | 3.0 | 0.00 | 0.00 | 0.00 | 53 | 1015.9 |
| 20260506183409 | 85 | 275 | 2.0 | 2.0 | 0.00 | 0.00 | 0.00 | 53 | 1015.9 |
| 20260506182906 | 85 | 294 | 2.0 | 2.0 | 0.00 | 0.00 | 0.00 | 54 | 1015.9 |
| 20260506182403 | 85 | 294 | 0.0 | 0.0 | 0.00 | 0.00 | 0.00 | 54 | 1015.9 |
| 20260506181900 | 85 | 280 | 2.0 | 2.0 | 0.00 | 0.00 | 0.00 | 52 | 1015.9 |
| 20260506181358 | 84 | 84 | 4.0 | 4.0 | 0.00 | 0.00 | 0.00 | 55 | 1015.9 |
| 20260506180855 | 84 | 136 | 4.0 | 4.0 | 0.00 | 0.00 | 0.00 | 55 | 1015.9 |
| 20260506180351 | 84 | 100 | 0.0 | 0.0 | 0.00 | 0.00 | 0.00 | 57 | 1015.9 |
| 20260506175848 | 84 | 241 | 3.0 | 3.0 | 0.00 | 0.00 | 0.00 | 57 | 1016.2 |
| 20260506175345 | 84 | 268 | 2.0 | 2.0 | 0.00 | 0.00 | 0.00 | 58 | 1016.2 |
| 20260506174842 | 83 | 324 | 4.0 | 4.0 | 0.00 | 0.00 | 0.00 | 60 | 1016.2 |
| 20260506174339 | 83 | 280 | 3.0 | 3.0 | 0.00 | 0.00 | 0.00 | 60 | 1016.6 |
| 20260506173837 | 83 | 339 | 2.0 | 2.0 | 0.00 | 0.00 | 0.00 | 61 | 1016.6 |
| 20260506173333 | 83 | 86 | 4.0 | 4.0 | 0.00 | 0.00 | 0.00 | 61 | 1016.6 |
| 20260506172830 | 82 | 38 | 2.0 | 2.0 | 0.00 | 0.00 | 0.00 | 63 | 1016.6 |
| 20260506172327 | 82 | 72 | 2.0 | 2.0 | 0.00 | 0.00 | 0.00 | 63 | 1016.6 |
| 20260506171824 | 82 | 227 | 2.0 | 2.0 | 0.00 | 0.00 | 0.00 | 62 | 1016.6 |
| 20260506171321 | 82 | 252 | 5.0 | 5.0 | 0.00 | 0.00 | 0.00 | 62 | 1016.6 |
| 20260506170819 | 82 | 192 | 0.0 | 0.0 | 0.00 | 0.00 | 0.00 | 61 | 1016.6 |
| 20260506170315 | 82 | 234 | 4.0 | 4.0 | 0.00 | 0.00 | 0.00 | 62 | 1016.6 |
| 20260506165814 | 83 | 204 | 3.0 | 3.0 | 0.00 | 0.00 | 0.00 | 60 | 1016.6 |
| 20260506165311 | 83 | 204 | 4.0 | 5.0 | 0.00 | 0.00 | 0.00 | 60 | 1016.6 |
| 20260506164808 | 82 | 217 | 4.0 | 5.0 | 0.00 | 0.00 | 0.00 | 61 | 1016.6 |
| 20260506164304 | 82 | 270 | 0.0 | 0.0 | 0.00 | 0.00 | 0.00 | 62 | 1016.6 |
| 20260506163801 | 83 | 80 | 5.0 | 5.0 | 0.00 | 0.00 | 0.00 | 61 | 1016.6 |
| 20260506163256 | 82 | 0 | 3.0 | 3.0 | 0.00 | 0.00 | 0.00 | 61 | 1016.6 |
| 20260506162752 | 82 | 6 | 2.0 | 2.0 | 0.00 | 0.00 | 0.00 | 61 | 1016.6 |
| 20260506162250 | 82 | 318 | 3.0 | 3.0 | 0.00 | 0.00 | 0.00 | 62 | 1016.6 |
| 20260506161747 | 82 | 232 | 3.0 | 3.0 | 0.00 | 0.00 | 0.00 | 62 | 1016.6 |
| 20260506161244 | 82 | 295 | 3.0 | 3.0 | 0.00 | 0.00 | 0.00 | 60 | 1016.9 |
| 20260506160742 | 82 | 276 | 4.0 | 4.0 | 0.00 | 0.00 | 0.00 | 62 | 1016.9 |
| 20260506160238 | 82 | 212 | 4.0 | 5.0 | 0.00 | 0.00 | 0.00 | 59 | 1016.9 |
| 20260506155737 | 81 | 270 | 2.0 | 2.0 | 0.00 | 0.00 | 0.00 | 62 | 1017.3 |
| 20260506155233 | 80 | 192 | 0.0 | 0.0 | 0.00 | 0.00 | 0.00 | 64 | 1017.3 |
| 20260506153341 | 80 | 226 | 5.0 | 5.0 | 0.00 | 0.00 | 0.00 | 65 | 1017.3 |
| 20260506152838 | 80 | 264 | 2.0 | 2.0 | 0.00 | 0.00 | 0.00 | 66 | 1016.9 |
| 20260506152335 | 81 | 300 | 0.0 | 0.0 | 0.00 | 0.00 | 0.00 | 64 | 1016.9 |
| 20260506151833 | 81 | 241 | 0.0 | 0.0 | 0.00 | 0.00 | 0.00 | 64 | 1016.9 |
| 20260506151330 | 80 | 336 | 2.0 | 2.0 | 0.00 | 0.00 | 0.00 | 65 | 1016.9 |
| 20260506150827 | 80 | 306 | 3.0 | 3.0 | 0.00 | 0.00 | 0.00 | 65 | 1016.9 |
| 20260506150324 | 80 | 168 | 3.0 | 3.0 | 0.00 | 0.00 | 0.00 | 64 | 1016.9 |
| 20260506145820 | 81 | 264 | 3.0 | 4.0 | 0.00 | 0.00 | 0.00 | 63 | 1016.9 |
| 20260506145317 | 80 | 177 | 0.0 | 0.0 | 0.00 | 0.00 | 0.00 | 64 | 1016.9 |
| 20260506144815 | 80 | 4 | 4.0 | 4.0 | 0.00 | 0.00 | 0.00 | 64 | 1016.9 |
| 20260506144311 | 79 | 36 | 3.0 | 3.0 | 0.00 | 0.00 | 0.00 | 63 | 1016.9 |
| 20260506143810 | 79 | 163 | 2.0 | 2.0 | 0.00 | 0.00 | 0.00 | 63 | 1016.9 |
| 20260506143306 | 78 | 266 | 4.0 | 4.0 | 0.00 | 0.00 | 0.00 | 65 | 1016.9 |
| 20260506142804 | 79 | 179 | 4.0 | 5.0 | 0.00 | 0.00 | 0.00 | 63 | 1016.6 |
| 20260506142305 | 78 | 335 | 2.0 | 2.0 | 0.00 | 0.00 | 0.00 | 64 | 1016.6 |
| 20260506141800 | 78 | 264 | 2.0 | 2.0 | 0.00 | 0.00 | 0.00 | 64 | 1016.6 |
| 20260506141258 | 77 | 199 | 2.0 | 2.0 | 0.00 | 0.00 | 0.00 | 65 | 1016.9 |
| 20260506140755 | 77 | 81 | 0.0 | 0.0 | 0.00 | 0.00 | 0.00 | 67 | 1016.9 |
| 20260506140252 | 77 | 328 | 3.0 | 3.0 | 0.00 | 0.00 | 0.00 | 67 | 1016.9 |
| 20260506135749 | 77 | 96 | 2.0 | 2.0 | 0.00 | 0.00 | 0.00 | 67 | 1016.6 |
| 20260506135245 | 77 | 344 | 1.0 | 1.0 | 0.00 | 0.00 | 0.00 | 67 | 1016.6 |
| 20260506134742 | 76 | 193 | 4.0 | 4.0 | 0.00 | 0.00 | 0.00 | 67 | 1016.6 |
| 20260506134239 | 76 | 227 | 4.0 | 5.0 | 0.00 | 0.00 | 0.00 | 69 | 1016.2 |
| 20260506133736 | 76 | 210 | 2.0 | 2.0 | 0.00 | 0.00 | 0.00 | 70 | 1016.2 |
| 20260506133232 | 75 | 252 | 2.0 | 2.0 | 0.00 | 0.00 | 0.00 | 73 | 1016.2 |
| 20260506132729 | 75 | 102 | 0.0 | 0.0 | 0.00 | 0.00 | 0.00 | 73 | 1016.6 |
| 20260506132226 | 74 | 253 | 0.0 | 0.0 | 0.00 | 0.00 | 0.00 | 74 | 1016.6 |
| 20260506131725 | 74 | 92 | 2.0 | 2.0 | 0.00 | 0.00 | 0.00 | 74 | 1016.6 |
| 20260506131220 | 74 | 0 | 2.0 | 2.0 | 0.00 | 0.00 | 0.00 | 76 | 1016.6 |
| 20260506130717 | 73 | 18 | 2.0 | 2.0 | 0.00 | 0.00 | 0.00 | 78 | 1016.6 |
| 20260506130214 | 73 | 197 | 0.0 | 0.0 | 0.00 | 0.00 | 0.00 | 78 | 1016.6 |
| 20260506125712 | 73 | 53 | 2.0 | 2.0 | 0.00 | 0.00 | 0.00 | 78 | 1016.2 |
| 20260506125210 | 72 | 114 | 0.0 | 0.0 | 0.00 | 0.00 | 0.00 | 80 | 1016.2 |
| 20260506124708 | 72 | 300 | 2.0 | 2.0 | 0.00 | 0.00 | 0.00 | 81 | 1016.2 |
| 20260506124206 | 71 | 294 | 0.0 | 0.0 | 0.00 | 0.00 | 0.00 | 83 | 1016.2 |
| 20260506123702 | 71 | 277 | 3.0 | 3.0 | 0.00 | 0.00 | 0.00 | 84 | 1016.2 |
| 20260506123202 | 71 | 256 | 0.0 | 0.0 | 0.00 | 0.00 | 0.00 | 86 | 1016.2 |
| 20260506122658 | 70 | 138 | 2.0 | 2.0 | 0.00 | 0.00 | 0.00 | 86 | 1016.2 |
| 20260506122155 | 69 | 264 | 0.0 | 0.0 | 0.00 | 0.00 | 0.00 | 88 | 1016.2 |
| 20260506121653 | 68 | 190 | 3.0 | 3.0 | 0.00 | 0.00 | 0.00 | 89 | 1016.2 |
| 20260506121149 | 67 | 181 | 1.0 | 1.0 | 0.00 | 0.00 | 0.00 | 92 | 1016.2 |
| 20260506120647 | 66 | 186 | 3.0 | 3.0 | 0.00 | 0.00 | 0.00 | 95 | 1016.2 |
| 20260506120144 | 66 | 126 | 0.0 | 0.0 | 0.00 | 0.00 | 0.00 | 97 | 1016.2 |
| 20260506115643 | 65 | 186 | 0.0 | 0.0 | 0.00 | 0.00 | 0.00 | 98 | 1015.9 |
| 20260506115140 | 64 | 186 | 0.0 | 0.0 | 0.00 | 0.00 | 0.00 | 99 | 1015.9 |
| 20260506114637 | 63 | 222 | 0.0 | 0.0 | 0.00 | 0.00 | 0.00 | 99 | 1015.9 |
| 20260506114135 | 62 | 195 | 0.0 | 0.0 | 0.00 | 0.00 | 0.00 | 99 | 1015.9 |
| 20260506113634 | 62 | 196 | 0.0 | 0.0 | 0.00 | 0.00 | 0.00 | 99 | 1015.9 |
| 20260506113130 | 62 | 195 | 0.0 | 0.0 | 0.00 | 0.00 | 0.00 | 99 | 1015.9 |
| 20260506112626 | 61 | 207 | 0.0 | 0.0 | 0.00 | 0.00 | 0.00 | 99 | 1015.9 |
| 20260506112124 | 61 | 239 | 0.0 | 0.0 | 0.00 | 0.00 | 0.00 | 99 | 1015.9 |
| 20260506111622 | 61 | 231 | 0.0 | 0.0 | 0.00 | 0.00 | 0.00 | 99 | 1015.9 |
| 20260506111119 | 60 | 231 | 0.0 | 0.0 | 0.00 | 0.00 | 0.00 | 99 | 1015.9 |
| 20260506110616 | 60 | 231 | 0.0 | 0.0 | 0.00 | 0.00 | 0.00 | 99 | 1015.9 |
| 20260506110114 | 60 | 231 | 0.0 | 0.0 | 0.00 | 0.00 | 0.00 | 99 | 1015.9 |
| 20260506105610 | 60 | 231 | 0.0 | 0.0 | 0.00 | 0.00 | 0.00 | 99 | 1015.9 |
| 20260506105107 | 60 | 230 | 0.0 | 0.0 | 0.00 | 0.00 | 0.00 | 99 | 1015.9 |
| 20260506104606 | 60 | 231 | 0.0 | 0.0 | 0.00 | 0.00 | 0.00 | 99 | 1015.9 |
| 20260506104102 | 60 | 231 | 0.0 | 0.0 | 0.00 | 0.00 | 0.00 | 99 | 1015.9 |
| 20260506103600 | 60 | 231 | 0.0 | 0.0 | 0.00 | 0.00 | 0.00 | 99 | 1015.9 |
| 20260506103056 | 60 | 231 | 0.0 | 0.0 | 0.00 | 0.00 | 0.00 | 99 | 1015.9 |
| 20260506102555 | 60 | 231 | 0.0 | 0.0 | 0.00 | 0.00 | 0.00 | 99 | 1015.6 |
| 20260506102052 | 60 | 231 | 0.0 | 0.0 | 0.00 | 0.00 | 0.00 | 99 | 1015.6 |
| 20260506101548 | 60 | 231 | 0.0 | 0.0 | 0.00 | 0.00 | 0.00 | 99 | 1015.6 |
| 20260506101045 | 60 | 231 | 0.0 | 0.0 | 0.00 | 0.00 | 0.00 | 99 | 1015.9 |
| 20260506100544 | 60 | 231 | 0.0 | 0.0 | 0.00 | 0.00 | 0.00 | 99 | 1015.9 |
| 20260506100041 | 60 | 231 | 0.0 | 0.0 | 0.00 | 0.00 | 0.00 | 99 | 1015.9 |
| 20260506095540 | 60 | 231 | 0.0 | 0.0 | 0.00 | 0.00 | 0.00 | 99 | 1015.6 |
| 20260506095036 | 60 | 228 | 0.0 | 0.0 | 0.00 | 0.00 | 0.00 | 98 | 1015.6 |
| 20260506094534 | 60 | 228 | 0.0 | 0.0 | 0.00 | 0.00 | 0.00 | 98 | 1015.6 |
| 20260506094032 | 60 | 228 | 0.0 | 0.0 | 0.00 | 0.00 | 0.00 | 98 | 1015.6 |
| 20260506093530 | 60 | 228 | 0.0 | 0.0 | 0.00 | 0.00 | 0.00 | 98 | 1015.6 |
| 20260506093027 | 60 | 228 | 0.0 | 0.0 | 0.00 | 0.00 | 0.00 | 98 | 1015.6 |
| 20260506092525 | 60 | 240 | 0.0 | 0.0 | 0.00 | 0.00 | 0.00 | 98 | 1015.6 |
| 20260506092021 | 60 | 240 | 0.0 | 0.0 | 0.00 | 0.00 | 0.00 | 98 | 1015.6 |
| 20260506091520 | 60 | 242 | 0.0 | 0.0 | 0.00 | 0.00 | 0.00 | 98 | 1015.6 |
| 20260506091016 | 60 | 240 | 0.0 | 0.0 | 0.00 | 0.00 | 0.00 | 98 | 1015.9 |
| 20260506090514 | 60 | 240 | 0.0 | 0.0 | 0.00 | 0.00 | 0.00 | 97 | 1015.9 |
| 20260506090010 | 60 | 240 | 0.0 | 0.0 | 0.00 | 0.00 | 0.00 | 98 | 1015.9 |
| 20260506085507 | 60 | 240 | 0.0 | 0.0 | 0.00 | 0.00 | 0.00 | 97 | 1015.9 |
| 20260506085004 | 60 | 240 | 0.0 | 0.0 | 0.00 | 0.00 | 0.00 | 97 | 1015.9 |
| 20260506084501 | 60 | 240 | 0.0 | 0.0 | 0.00 | 0.00 | 0.00 | 97 | 1015.9 |
| 20260506083956 | 60 | 240 | 0.0 | 0.0 | 0.00 | 0.00 | 0.00 | 97 | 1015.9 |
| 20260506083454 | 60 | 240 | 0.0 | 0.0 | 0.00 | 0.00 | 0.00 | 98 | 1015.9 |
| 20260506082951 | 60 | 240 | 0.0 | 0.0 | 0.00 | 0.00 | 0.00 | 98 | 1015.9 |
| 20260506082448 | 60 | 240 | 0.0 | 0.0 | 0.00 | 0.00 | 0.00 | 98 | 1015.9 |
| 20260506081944 | 60 | 240 | 0.0 | 0.0 | 0.00 | 0.00 | 0.00 | 98 | 1015.9 |
| 20260506081442 | 60 | 240 | 0.0 | 0.0 | 0.00 | 0.00 | 0.00 | 98 | 1015.9 |
| 20260506080939 | 60 | 240 | 0.0 | 0.0 | 0.00 | 0.00 | 0.00 | 98 | 1015.9 |
| 20260506080436 | 60 | 228 | 0.0 | 0.0 | 0.00 | 0.00 | 0.00 | 98 | 1015.9 |
| 20260506073420 | 60 | 228 | 0.0 | 0.0 | 0.00 | 0.00 | 0.00 | 97 | 1015.6 |
| 20260506072918 | 60 | 228 | 0.0 | 0.0 | 0.00 | 0.00 | 0.00 | 97 | 1015.6 |
| 20260506072414 | 60 | 228 | 0.0 | 0.0 | 0.00 | 0.00 | 0.00 | 97 | 1015.6 |
| 20260506071912 | 60 | 228 | 0.0 | 0.0 | 0.00 | 0.00 | 0.00 | 97 | 1015.6 |
| 20260506071410 | 60 | 228 | 0.0 | 0.0 | 0.00 | 0.00 | 0.00 | 96 | 1015.6 |
| 20260506070907 | 60 | 228 | 0.0 | 0.0 | 0.00 | 0.00 | 0.00 | 97 | 1015.6 |
| 20260506070403 | 60 | 228 | 0.0 | 0.0 | 0.00 | 0.00 | 0.00 | 96 | 1015.6 |
| 20260506062341 | 60 | 232 | 0.0 | 0.0 | 0.00 | 0.00 | 0.00 | 95 | 1015.9 |
| 20260506061837 | 60 | 232 | 0.0 | 0.0 | 0.00 | 0.00 | 0.00 | 95 | 1015.9 |
| 20260506061333 | 60 | 228 | 0.0 | 0.0 | 0.00 | 0.00 | 0.00 | 95 | 1015.9 |
| 20260506060832 | 60 | 228 | 0.0 | 0.0 | 0.00 | 0.00 | 0.00 | 95 | 1015.9 |
| 20260506060329 | 60 | 228 | 0.0 | 0.0 | 0.00 | 0.00 | 0.00 | 95 | 1015.9 |
| 20260506051301 | 60 | 222 | 0.0 | 0.0 | 0.00 | 0.00 | 0.00 | 93 | 1016.6 |
| 20260506050759 | 60 | 222 | 0.0 | 0.0 | 0.00 | 0.00 | 0.00 | 93 | 1016.6 |
| 20260506050256 | 60 | 222 | 0.0 | 0.0 | 0.00 | 0.00 | 0.00 | 93 | 1016.6 |
| 20260506044747 | 61 | 222 | 0.0 | 0.0 | 0.00 | 0.00 | 0.00 | 92 | 1016.6 |
| 20260506044244 | 61 | 222 | 0.0 | 0.0 | 0.00 | 0.00 | 0.00 | 92 | 1016.9 |
| 20260506043741 | 61 | 222 | 0.0 | 0.0 | 0.00 | 0.00 | 0.00 | 91 | 1016.9 |
| 20260506043239 | 61 | 222 | 0.0 | 0.0 | 0.00 | 0.00 | 0.00 | 91 | 1016.9 |
| 20260506042737 | 61 | 222 | 0.0 | 0.0 | 0.00 | 0.00 | 0.00 | 91 | 1016.9 |
| 20260506042236 | 61 | 240 | 0.0 | 0.0 | 0.00 | 0.00 | 0.00 | 90 | 1016.9 |
| 20260506041734 | 61 | 240 | 0.0 | 0.0 | 0.00 | 0.00 | 0.00 | 90 | 1016.9 |
| 20260506041230 | 61 | 240 | 0.0 | 0.0 | 0.00 | 0.00 | 0.00 | 90 | 1016.6 |
| 20260506040728 | 61 | 244 | 0.0 | 0.0 | 0.00 | 0.00 | 0.00 | 89 | 1016.6 |
| 20260506040225 | 61 | 246 | 0.0 | 0.0 | 0.00 | 0.00 | 0.00 | 89 | 1016.6 |
| 20260506035721 | 62 | 246 | 0.0 | 0.0 | 0.00 | 0.00 | 0.00 | 88 | 1016.6 |
| 20260506035219 | 62 | 246 | 0.0 | 0.0 | 0.00 | 0.00 | 0.00 | 88 | 1016.6 |
| 20260506034715 | 62 | 246 | 0.0 | 0.0 | 0.00 | 0.00 | 0.00 | 88 | 1016.6 |
| 20260506034212 | 62 | 246 | 0.0 | 0.0 | 0.00 | 0.00 | 0.00 | 88 | 1016.6 |
| 20260506033710 | 62 | 240 | 0.0 | 0.0 | 0.00 | 0.00 | 0.00 | 88 | 1016.6 |
| 20260506033206 | 62 | 240 | 0.0 | 0.0 | 0.00 | 0.00 | 0.00 | 88 | 1016.6 |
| 20260506032703 | 62 | 242 | 0.0 | 0.0 | 0.00 | 0.00 | 0.00 | 87 | 1016.6 |
| 20260506032201 | 62 | 240 | 0.0 | 0.0 | 0.00 | 0.00 | 0.00 | 87 | 1016.6 |
| 20260506031657 | 62 | 252 | 0.0 | 0.0 | 0.00 | 0.00 | 0.00 | 86 | 1016.6 |
| 20260506031154 | 62 | 252 | 0.0 | 0.0 | 0.00 | 0.00 | 0.00 | 86 | 1016.6 |
| 20260506030653 | 63 | 252 | 0.0 | 0.0 | 0.00 | 0.00 | 0.00 | 86 | 1016.6 |
| 20260506030150 | 63 | 252 | 0.0 | 0.0 | 0.00 | 0.00 | 0.00 | 86 | 1016.6 |
| 20260506025646 | 63 | 234 | 0.0 | 0.0 | 0.00 | 0.00 | 0.00 | 86 | 1016.6 |
| 20260506025142 | 63 | 232 | 0.0 | 0.0 | 0.00 | 0.00 | 0.00 | 85 | 1016.6 |
| 20260506024640 | 63 | 240 | 0.0 | 0.0 | 0.00 | 0.00 | 0.00 | 85 | 1016.6 |
| 20260506024136 | 63 | 240 | 0.0 | 0.0 | 0.00 | 0.00 | 0.00 | 85 | 1016.9 |
| 20260506023633 | 63 | 240 | 0.0 | 0.0 | 0.00 | 0.00 | 0.00 | 85 | 1016.9 |
| 20260506023130 | 63 | 240 | 0.0 | 0.0 | 0.00 | 0.00 | 0.00 | 84 | 1016.9 |
| 20260506022627 | 64 | 240 | 0.0 | 0.0 | 0.00 | 0.00 | 0.00 | 84 | 1016.9 |
| 20260506022125 | 64 | 240 | 0.0 | 0.0 | 0.00 | 0.00 | 0.00 | 84 | 1016.9 |
| 20260506021622 | 64 | 240 | 0.0 | 0.0 | 0.00 | 0.00 | 0.00 | 84 | 1016.9 |
| 20260506021119 | 64 | 240 | 0.0 | 0.0 | 0.00 | 0.00 | 0.00 | 82 | 1016.9 |
| 20260506020616 | 64 | 240 | 0.0 | 0.0 | 0.00 | 0.00 | 0.00 | 82 | 1016.9 |
| 20260506020114 | 65 | 240 | 0.0 | 0.0 | 0.00 | 0.00 | 0.00 | 82 | 1016.9 |
| 20260506015611 | 65 | 240 | 0.0 | 0.0 | 0.00 | 0.00 | 0.00 | 81 | 1016.9 |
| 20260506015108 | 65 | 264 | 0.0 | 0.0 | 0.00 | 0.00 | 0.00 | 81 | 1016.9 |
| 20260506014606 | 65 | 276 | 0.0 | 0.0 | 0.00 | 0.00 | 0.00 | 81 | 1016.9 |
| 20260506014101 | 65 | 262 | 0.0 | 0.0 | 0.00 | 0.00 | 0.00 | 80 | 1016.2 |
| 20260506013559 | 65 | 138 | 0.0 | 0.0 | 0.00 | 0.00 | 0.00 | 81 | 1016.2 |
| 20260506013056 | 65 | 192 | 0.0 | 0.0 | 0.00 | 0.00 | 0.00 | 81 | 1016.2 |
| 20260506012552 | 66 | 216 | 0.0 | 0.0 | 0.00 | 0.00 | 0.00 | 80 | 1016.6 |
| 20260506012048 | 66 | 255 | 0.0 | 0.0 | 0.00 | 0.00 | 0.00 | 80 | 1016.6 |
| 20260506011547 | 66 | 258 | 0.0 | 0.0 | 0.00 | 0.00 | 0.00 | 79 | 1016.6 |
| 20260506011042 | 67 | 191 | 0.0 | 0.0 | 0.00 | 0.00 | 0.00 | 78 | 1016.6 |
| 20260506010536 | 67 | 191 | 0.0 | 0.0 | 0.00 | 0.00 | 0.00 | 77 | 1016.6 |
| 20260506010032 | 67 | 191 | 0.0 | 0.0 | 0.00 | 0.00 | 0.00 | 76 | 1016.6 |
| 20260506005529 | 67 | 191 | 0.0 | 0.0 | 0.00 | 0.00 | 0.00 | 76 | 1016.2 |
| 20260506005025 | 68 | 186 | 0.0 | 0.0 | 0.00 | 0.00 | 0.00 | 76 | 1016.2 |
| 20260506004523 | 68 | 132 | 0.0 | 0.0 | 0.00 | 0.00 | 0.00 | 75 | 1016.2 |
| 20260506004019 | 68 | 174 | 0.0 | 0.0 | 0.00 | 0.00 | 0.00 | 74 | 1016.6 |
| 20260506003516 | 68 | 150 | 0.0 | 0.0 | 0.00 | 0.00 | 0.00 | 73 | 1016.6 |
| 20260506003012 | 69 | 144 | 0.0 | 0.0 | 0.00 | 0.00 | 0.00 | 72 | 1016.6 |
| 20260506002508 | 69 | 174 | 0.0 | 0.0 | 0.00 | 0.00 | 0.00 | 71 | 1016.6 |
| 20260506002004 | 69 | 170 | 0.0 | 0.0 | 0.00 | 0.00 | 0.00 | 70 | 1016.6 |
| 20260506001501 | 70 | 113 | 1.0 | 1.0 | 0.00 | 0.00 | 0.00 | 69 | 1016.6 |
| 20260506000958 | 70 | 225 | 0.0 | 0.0 | 0.00 | 0.00 | 0.00 | 68 | 1016.6 |
| 20260506000455 | 70 | 186 | 0.0 | 0.0 | 0.00 | 0.00 | 0.00 | 67 | 1016.6 |
| 20260505235952 | 71 | 168 | 0.0 | 0.0 | 0.00 | 0.00 | 0.00 | 66 | 1016.6 |
| 20260505235450 | 71 | 84 | 0.0 | 0.0 | 0.00 | 0.00 | 0.00 | 65 | 1016.6 |
| 20260505234946 | 71 | 126 | 0.0 | 0.0 | 0.00 | 0.00 | 0.00 | 64 | 1016.6 |
| 20260505234444 | 71 | 42 | 0.0 | 0.0 | 0.00 | 0.00 | 0.00 | 64 | 1016.2 |
| 20260505233940 | 71 | 108 | 0.0 | 0.0 | 0.00 | 0.00 | 0.00 | 62 | 1016.2 |
| 20260505233438 | 72 | 108 | 2.0 | 2.0 | 0.00 | 0.00 | 0.00 | 61 | 1016.2 |
| 20260505232936 | 72 | 140 | 0.0 | 0.0 | 0.00 | 0.00 | 0.00 | 61 | 1015.9 |
| 20260505232434 | 72 | 61 | 3.0 | 3.0 | 0.00 | 0.00 | 0.00 | 62 | 1015.9 |
| 20260505231930 | 72 | 260 | 0.0 | 0.0 | 0.00 | 0.00 | 0.00 | 62 | 1015.9 |